EHI
13 5 0 0 0 0 0 0 0 0 0 0 0 0 0 0 0 0 0 0 0 0 0 0 0 0 0 0 0 0 0 0 0 0 0 0 0 0 1 2 2 1 0 0 1 2 4 7 9
6 3 0 0 0 0 0 0 0 0 0 0 0 0 0 0 0 0 0 0 0 0 0 0 0 0 0 0 0 0 0 0 0 0 0 0 0 0 0 1 1 0 0 0 0 1 3 4 5
1 0 0 0 0 0 0 0 0 0 0 0 0 0 0 0 0 0 0 0 0 0 0 0 0 0 0 0 0 0 0 0 0 0 0 0 0 0 0 0 0 0 1 1 1 0 1 1 1
0 0 0 0 0 0 0 0 0 0 0 0 0 0 0 0 0 0 0 0 0 0 0 0 0 0 0 0 0 0 0 0 0 0 0 0 0 0 0 0 0 0 1 1 1 0 0 1 1
0 0 0 0 0 0 0 0 0 0 0 0 0 0 0 0 0 0 0 0 0 0 0 0 0 0 0 0 0 0 0 0 0 0 0 0 0 0 0 0 0 0 0 0 0 0 0 1 2
0 0 0 0 0 0 0 0 0 0 0 0 0 0 0 0 0 0 0 0 0 0 0 0 0 0 0 0 0 0 0 0 0 0 0 0 0 0 0 0 0 0 0 0 0 0 0 1 1
0 0 0 0 0 0 0 0 0 0 0 0 0 0 0 0 0 0 0 0 0 0 0 0 0 0 0 0 0 0 0 0 0 0 0 0 0 0 0 0 0 0 0 0 0 0 0 0 0
0 0 0 0 0 0 0 0 0 0 0 0 0 0 0 0 1 1 0 0 0 0 0 0 0 0 0 0 0 0 0 0 0 0 0 0 0 0 0 0 0 0 0 0 0 0 0 0 0
0 0 0 0 0 0 0 0 0 0 0 0 0 0 1 3 4 3 1 0 0 0 0 0 0 0 0 0 0 0 0 0 0 0 0 0 0 0 0 0 0 0 0 0 0 0 0 0 0
0 0 0 0 0 0 0 0 0 0 0 0 0 0 2 6 7 3 1 0 0 0 0 0 0 0 0 0 0 0 0 0 0 0 0 0 0 0 0 0 0 0 0 0 0 0 0 0 0
0 0 0 0 0 0 0 0 0 0 0 0 0 0 2 6 5 2 0 0 0 0 0 0 0 0 0 0 0 0 0 0 0 0 0 0 0 0 0 0 0 0 0 0 0 0 0 0 0
0 0 0 0 0 0 0 0 0 0 0 0 0 0 1 2 2 0 0 0 0 0 0 0 0 0 0 0 0 0 0 0 0 0 0 0 0 0 0 0 0 0 0 0 0 0 0 0 0
0 0 0 0 0 0 0 0 0 0 0 0 0 0 0 0 0 0 0 0 0 0 0 0 0 0 0 0 0 0 0 0 0 0 0 0 0 0 0 0 0 0 0 0 0 0 0 0 0
0 0 0 0 0 0 0 0 0 0 0 0 0 0 0 0 0 0 0 0 0 0 0 0 0 0 0 0 0 0 0 0 0 0 0 0 0 0 0 0 0 0 0 0 0 0 0 0 0
0 0 0 0 0 0 0 0 0 0 0 0 0 0 0 0 0 0 0 0 0 0 0 0 0 0 0 0 0 0 0 0 0 0 0 0 0 0 0 0 0 0 0 0 0 0 0 0 0
0 0 0 0 0 0 0 0 0 0 0 0 0 0 0 0 0 0 0 0 0 0 0 0 0 0 0 0 0 0 0 0 0 0 0 0 0 0 0 0 0 0 0 0 0 0 0 0 0
0 0 0 0 0 0 0 0 0 0 0 0 0 0 0 0 0 0 0 0 0 0 0 0 0 0 0 0 0 0 0 0 0 0 0 0 0 0 0 0 0 0 0 0 0 0 0 0 0
0 0 0 0 0 0 0 0 0 0 0 0 0 0 0 0 0 0 0 0 0 0 0 0 0 1 1 0 0 0 0 0 0 0 0 0 0 0 0 0 0 0 0 0 0 0 0 0 0
0 0 0 0 0 0 0 0 0 0 0 0 0 0 0 0 0 0 0 0 0 0 0 1 3 6 6 3 1 0 0 0 0 0 0 0 0 0 0 0 0 0 0 0 0 0 0 0 0
0 0 0 0 0 0 0 0 0 0 0 0 0 0 0 0 0 0 0 0 0 0 1 4 8 14 16 10 4 1 0 0 0 0 0 0 0 0 0 0 0 0 0 0 0 0 0 0 0
0 0 0 0 0 0 0 0 0 0 0 0 0 0 0 0 0 0 0 0 0 1 5 8 12 20 24 19 11 6 3 1 0 0 0 0 0 0 0 0 0 0 0 0 0 0 0 0 0
0 0 0 0 0 0 0 0 0 0 0 0 0 0 0 0 0 0 0 0 3 8 16 21 25 29 28 23 17 12 7 3 1 0 0 0 0 0 0 0 0 0 0 0 0 0 0 0 0
0 0 0 0 0 0 0 0 0 0 0 0 0 0 0 0 0 0 0 2 10 22 35 44 45 39 28 19 13 11 8 4 1 0 0 0 0 0 0 0 0 0 0 0 0 0 0 0 0
0 0 0 0 0 0 0 0 0 0 0 0 0 0 0 0 0 0 1 6 18 35 49 55 52 38 23 13 6 5 5 3 1 0 0 0 0 0 0 0 0 0 0 0 0 0 0 0 0
0 0 0 0 0 0 0 0 0 0 0 0 0 0 0 0 0 0 2 8 17 29 37 40 37 26 16 9 3 1 1 1 0 0 0 0 0 0 0 0 0 0 0 0 0 0 0 0 0
0 0 0 0 0 0 0 0 0 0 0 0 0 0 0 0 0 0 2 4 8 12 14 17 17 14 10 6 2 0 0 0 0 0 0 0 0 0 0 0 0 0 0 0 0 0 0 0 0
0 0 0 0 0 0 0 0 0 0 0 0 0 0 0 0 0 0 0 1 2 3 4 5 6 6 4 2 0 0 0 0 0 0 0 0 0 0 0 0 0 0 0 0 0 0 0 0 0
0 0 0 0 0 0 0 0 0 0 0 0 0 0 0 0 0 0 0 1 1 1 2 3 3 2 1 0 0 0 0 0 0 0 0 0 0 0 0 0 0 0 0 0 0 0 0 0 0
0 0 0 0 0 0 0 0 0 0 0 0 0 0 0 0 0 0 0 0 0 0 1 2 1 1 0 0 0 0 0 0 0 0 0 0 0 0 0 0 0 0 0 0 0 0 0 0 0
0 0 0 0 0 0 0 0 0 0 0 0 0 0 0 0 0 0 0 0 0 0 0 1 0 0 0 0 0 0 0 0 0 0 0 0 0 0 0 0 0 0 0 0 0 0 0 0 0
Wind_Speed
4 2 3 3 6 6 2 2 1 1 2 2 3 6 6 3 1 2 2 8 9 10 8 10 13 11 11 10 11 11 11 11 12 12 13 12 11 11 10 9 9 9 8 7 7 7 8 7 7
1 2 3 5 6 3 3 2 1 1 4 4 4 4 4 3 2 5 4 6 10 11 8 9 13 12 11 10 10 11 11 11 12 12 12 11 10 10 9 9 9 9 8 8 7 7 8 8 7
0 2 3 4 3 2 2 1 1 2 3 2 4 4 3 3 4 5 5 9 10 9 7 9 14 12 11 10 10 11 11 11 12 12 11 11 10 9 8 8 8 8 8 8 7 8 8 8 8
2 3 4 4 2 2 3 2 2 5 1 4 4 4 3 2 6 5 9 11 10 8 6 8 14 12 11 10 10 11 11 11 11 11 11 10 9 8 8 7 7 7 7 7 7 7 8 9 8
4 4 5 4 4 4 3 2 3 4 2 2 3 3 2 3 6 11 11 11 10 7 6 7 13 12 11 11 11 11 11 10 11 10 10 10 9 8 7 7 7 6 6 6 6 7 8 8 8
4 4 4 2 5 6 4 1 3 3 3 3 4 3 2 2 7 10 10 8 8 9 7 6 13 13 12 11 11 11 11 10 10 10 10 9 9 8 7 6 6 5 5 4 5 6 7 8 8
4 4 3 1 3 5 4 3 2 4 4 4 5 5 2 3 5 8 7 7 7 7 7 5 6 8 11 11 11 11 11 10 10 10 10 9 9 8 7 6 5 4 4 3 4 5 7 7 7
4 5 3 1 1 4 4 4 0 3 3 4 5 7 5 6 7 7 6 5 6 5 6 5 5 5 5 6 11 11 11 10 10 10 9 9 8 8 7 5 5 5 4 3 3 4 6 7 6
3 5 2 2 2 4 3 3 2 1 4 3 3 5 5 11 10 7 5 4 5 6 4 5 5 5 5 5 8 9 10 10 9 8 9 7 3 3 3 4 5 5 4 3 3 4 5 7 6
4 3 5 4 4 3 3 2 2 2 2 1 2 3 9 12 12 10 7 8 8 8 7 5 5 6 5 5 4 3 4 5 4 4 4 4 3 2 3 3 6 5 4 3 3 4 6 5 3
2 4 3 4 4 3 3 3 1 5 4 6 7 10 13 12 12 11 10 9 9 7 8 7 6 6 6 4 4 3 2 3 4 5 5 4 3 2 2 1 0 1 2 3 3 4 3 3 2
0 2 2 3 2 2 2 3 1 4 5 5 9 15 16 15 15 14 13 10 7 7 8 8 8 6 6 4 4 4 3 3 3 4 5 4 3 2 2 1 1 1 1 1 1 1 2 2 2
1 2 2 3 4 4 4 4 2 3 6 1 9 13 15 15 14 12 10 9 8 9 10 9 9 7 6 5 4 5 4 4 4 4 4 5 3 3 2 2 1 1 1 1 0 0 0 1 2
1 1 2 3 3 2 3 4 1 3 4 3 10 13 14 14 13 10 9 10 10 10 11 10 10 9 7 6 5 4 4 4 4 4 5 5 4 4 3 3 2 2 2 2 1 1 1 2 2
1 0 1 2 2 2 3 4 1 4 4 2 7 9 10 10 10 10 11 11 11 11 10 11 11 10 9 7 6 5 4 4 4 4 5 5 4 4 4 3 3 3 2 2 1 1 2 3 3
3 2 2 3 3 4 2 4 3 2 3 2 3 5 7 9 10 10 10 10 9 9 10 12 11 11 10 8 6 4 4 5 4 4 4 6 6 5 4 3 3 3 3 3 2 2 2 2 3
4 2 2 4 2 2 2 4 5 3 3 3 4 4 5 6 9 10 11 12 11 11 11 12 11 12 11 9 6 5 4 5 4 4 5 6 7 6 5 4 3 3 3 3 3 2 2 3 3
2 1 2 4 3 1 2 5 8 5 4 4 5 5 6 7 11 10 11 13 12 11 11 12 11 10 10 7 5 3 4 4 4 4 5 7 6 7 6 4 4 3 3 3 3 3 2 2 3
2 2 4 6 3 1 4 6 7 6 7 8 7 7 8 9 10 9 11 12 13 13 13 13 12 10 9 6 6 5 4 4 4 4 5 6 6 7 6 5 4 4 4 4 4 3 3 2 3
2 3 5 6 2 2 3 6 3 4 5 6 8 9 10 12 11 9 9 11 15 16 15 14 13 12 11 8 6 3 3 2 2 2 4 5 6 6 6 6 5 5 4 5 5 4 3 2 3
3 4 5 5 2 2 2 5 3 4 4 9 10 9 10 12 14 13 9 10 12 14 14 11 12 10 8 7 5 3 3 2 2 3 3 4 5 6 5 6 5 5 6 6 6 6 6 4 2
5 5 4 4 1 3 1 4 4 6 7 12 15 15 16 16 15 12 8 7 9 11 9 9 9 9 7 7 6 6 5 4 4 3 2 3 4 5 5 5 6 6 5 6 7 7 5 5 4
4 5 2 1 3 1 1 2 5 6 9 13 15 15 16 16 15 12 8 2 3 5 7 8 9 9 8 6 5 4 3 3 1 1 2 3 3 4 4 5 5 5 5 6 6 7 7 5 5
4 4 3 4 3 2 3 4 3 4 7 12 14 15 16 16 14 12 10 7 7 7 9 10 11 8 7 6 3 4 4 3 3 2 2 1 1 2 3 4 4 5 4 5 6 6 8 6 6
7 5 5 5 2 5 1 3 1 3 6 8 12 14 14 13 12 11 11 9 9 10 9 9 12 8 6 4 2 3 4 4 3 3 2 2 1 1 2 3 3 3 4 4 5 5 6 7 7
4 1 2 3 4 3 1 2 2 3 7 7 8 10 12 12 10 9 9 7 9 10 9 8 8 6 3 2 3 3 3 2 2 3 2 3 2 2 2 3 3 3 3 4 4 4 5 6 7
5 3 1 2 2 2 2 1 1 8 12 13 13 13 13 12 9 8 6 7 9 9 8 7 6 5 1 1 2 2 3 3 3 3 2 2 2 2 2 3 2 2 3 3 4 3 4 4 6
3 2 3 2 2 3 1 2 5 13 17 17 15 15 13 12 9 7 5 6 8 8 7 6 5 3 1 1 2 2 3 3 3 3 3 3 3 2 3 3 3 2 2 2 3 2 3 4 4
6 6 4 2 2 1 1 2 6 10 13 14 14 13 12 11 8 6 6 5 6 6 4 3 2 1 0 1 1 3 3 3 3 3 2 2 2 3 3 3 3 2 2 2 2 2 2 3 3
2 4 3 2 3 1 0 2 7 10 11 11 13 13 12 10 7 5 5 4 4 4 3 2 1 1 0 2 2 3 3 3 3 2 2 2 3 3 3 3 3 3 2 2 2 1 1 2 2
Wind_Direction
341 61 93 57 49 47 18 311 280 332 50 36 73 92 100 95 128 157 124 143 138 146 159 159 156 151 147 146 147 146 142 140 136 130 126 123 121 118 115 110 106 102 98 97 102 107 107 106 102
332 111 62 57 75 58 311 299 261 210 131 137 82 77 81 76 85 112 129 148 144 149 152 155 158 155 152 150 150 149 146 144 138 133 131 127 123 120 116 113 110 104 99 96 96 102 105 105 103
271 95 78 67 84 156 261 273 225 89 126 113 77 61 91 121 134 153 153 142 142 146 145 161 160 158 157 155 153 152 149 146 143 140 136 131 126 122 120 115 111 107 101 94 90 94 98 99 94
87 53 55 66 35 250 250 265 169 131 94 63 95 74 61 94 151 152 138 142 143 142 141 165 163 162 161 159 156 155 152 149 148 146 142 137 133 129 127 122 118 114 107 97 87 87 88 86 81
61 77 59 39 336 303 280 254 166 145 125 86 100 99 46 17 114 130 140 145 145 141 147 169 166 166 165 163 160 157 155 154 153 152 148 144 140 137 135 132 126 120 114 102 86 78 78 74 69
56 64 76 24 322 315 311 317 146 133 125 117 111 100 51 110 125 139 144 145 149 151 153 168 171 170 170 167 165 163 161 161 160 156 153 151 147 142 140 140 136 130 122 108 86 71 70 66 62
99 88 112 117 328 323 339 4 146 143 142 161 135 110 104 158 150 141 140 138 145 154 156 164 166 171 174 172 170 169 167 167 165 159 157 156 151 146 147 149 148 144 135 120 90 68 62 58 55
117 100 93 92 352 293 320 337 245 150 150 125 126 144 180 186 152 129 122 131 147 156 160 160 158 160 163 170 176 174 172 171 168 162 162 162 156 154 155 155 161 158 151 130 89 66 59 57 53
88 77 141 195 199 266 319 345 345 93 118 119 152 175 184 145 140 127 121 137 163 172 168 163 160 157 155 162 180 175 174 173 169 166 170 157 127 125 139 159 175 169 158 132 89 70 67 62 47
82 124 212 207 194 232 302 286 263 112 120 119 84 100 127 141 155 162 170 176 183 186 182 172 169 163 161 172 163 155 157 156 149 144 143 123 124 134 140 190 183 177 163 130 95 72 66 65 43
121 176 218 237 217 228 287 291 247 142 196 210 189 162 150 159 170 182 188 187 191 186 187 182 177 171 169 165 151 148 142 141 144 146 139 135 132 133 121 98 152 75 94 60 46 49 54 56 52
117 241 223 260 230 229 257 294 306 190 236 241 189 164 162 172 183 191 194 193 184 177 190 183 181 177 179 170 163 158 154 154 157 158 152 146 148 157 155 160 142 89 76 73 43 44 49 64 74
228 271 263 294 298 271 276 270 263 270 306 257 153 163 175 184 192 199 198 194 185 187 190 185 181 182 180 174 174 171 171 169 167 164 166 164 165 173 174 175 170 160 144 141 85 13 42 125 117
245 252 287 315 312 321 292 284 265 319 336 133 161 180 188 194 196 195 197 197 196 195 192 185 184 185 180 182 183 178 178 171 168 175 180 179 177 175 177 183 186 189 180 170 172 205 166 147 131
290 324 1 5 351 329 322 318 347 324 344 169 189 195 200 206 204 207 208 206 202 199 192 188 187 184 184 187 190 185 180 172 178 185 187 189 189 187 183 187 195 191 170 162 141 110 111 120 119
37 46 346 319 359 344 29 296 299 328 15 311 261 236 222 221 219 219 216 216 208 198 193 193 193 187 189 188 188 184 180 179 184 184 187 197 200 195 188 196 208 177 155 153 145 130 110 114 123
29 29 308 309 344 7 38 279 289 334 358 308 295 276 260 253 246 233 222 219 212 204 198 194 194 187 189 186 183 184 180 187 187 184 191 200 204 198 192 206 212 166 157 161 164 144 138 146 143
269 266 272 279 294 352 294 273 295 334 345 321 314 307 293 270 255 243 231 224 218 209 202 198 194 186 178 170 165 173 188 195 190 192 198 197 202 198 192 203 208 174 169 176 169 155 136 139 145
208 222 255 260 261 250 260 275 299 340 14 4 352 336 318 297 279 259 235 223 217 211 203 197 193 182 170 166 171 180 200 198 199 199 198 197 196 194 193 199 196 185 188 190 172 149 144 129 130
211 245 263 278 287 226 274 283 316 25 33 11 358 346 332 321 311 288 251 224 215 210 205 197 193 184 180 181 170 161 155 175 190 189 195 195 193 191 196 193 191 189 186 183 176 155 147 148 159
257 230 246 259 327 23 332 314 347 358 12 9 5 351 342 333 320 304 274 234 216 210 204 194 186 178 173 161 136 110 100 100 151 195 203 197 190 191 194 192 188 188 184 191 189 174 166 164 176
284 281 259 257 262 282 14 288 307 340 349 1 357 352 345 337 329 316 292 248 216 206 187 168 158 149 147 149 161 167 180 193 206 195 194 189 192 194 195 191 189 190 191 195 194 183 174 161 170
288 322 331 274 192 254 293 220 297 356 355 346 345 345 343 340 339 336 331 297 190 170 141 131 126 124 129 143 165 184 196 192 155 152 180 190 191 197 196 192 187 192 194 197 191 182 181 178 173
340 4 24 42 85 236 230 183 307 9 342 330 336 342 343 344 348 354 6 31 54 76 98 108 104 100 110 118 151 191 197 177 158 170 177 184 184 195 195 185 186 192 195 195 193 189 187 189 183
25 35 359 343 2 246 250 147 136 357 341 330 331 337 341 344 352 3 12 31 47 58 71 86 92 84 84 105 168 192 188 172 175 180 187 181 186 204 204 183 183 187 194 193 186 187 194 193 195
339 82 195 251 245 281 322 166 145 6 342 335 334 334 342 347 351 3 14 38 51 50 55 68 86 95 104 160 183 175 157 154 170 180 177 183 189 200 188 177 178 185 186 186 183 191 198 199 206
357 346 259 232 266 261 269 87 66 358 355 349 347 347 346 345 350 0 16 45 61 57 46 50 68 72 74 184 153 153 156 157 165 164 157 160 164 162 143 142 147 167 181 185 181 196 205 202 209
32 323 22 16 262 247 253 68 1 348 344 341 343 342 338 340 348 2 22 48 57 56 44 37 41 50 296 190 167 152 151 149 145 141 151 152 146 134 131 128 132 138 158 175 181 201 209 210 215
357 6 1 301 252 235 207 72 17 343 334 333 336 337 338 343 349 4 26 35 53 55 49 33 32 33 171 152 136 123 127 129 128 133 147 150 147 149 150 148 143 143 141 139 156 193 200 214 223
31 355 335 319 312 312 136 74 10 342 337 341 344 348 349 350 354 11 28 30 45 38 14 317 296 300 175 137 124 120 116 116 122 128 136 153 164 168 165 157 155 161 158 153 160 177 180 203 220